Location: Canet
(43.3261°N, 5.3723°E)
Time: 19:13:56
(UTC+00:00)

ATLAS 2AS CENTAUR R/B - Pass Details

Date: 24 January 2021
Orbit: 947 x 1265 km, 63.7° (Epoch: 13 February)

Event Time Altitude Azimuth Distance (km) Brightness Sun altitude
Rises 17:00:24 0° 262° (W) 4,216 7.8 -4.2°
Reaches altitude 10° 17:03:47 10° 274° (W) 3,252 6.5 -4.8°
Maximum altitude 17:10:16 27° 329° (NNW) 2,202 4.5 -5.9°
Drops below altitude 10° 17:16:39 10° 25° (NNE) 3,176 4.8 -7.0°
Enters shadow 17:19:28 - 36° (NE) 3,967 5.2 -7.5°
